This demonstration page uses our WeatherBlox Daily Observations layout. Learn more.

Left ArrowRight Arrow

44.89941, -97.11507

Hourly Observations for November 7, 2020

Temp ( °F °C ) Dew Point ( °F °C ) Humidity (%) Winds ( mph kmh ) Pressure ( in mb ) Visibility ( mi km ) Precip ( " mm )
12:53 am 00:53 Clear 60 15.6 45 7.2 58 58 S 14 22 29.69 1005 10 16 0.00 0.00
1:53 am 01:53 Clear 59 15 46 7.8 62 62 S 12 19 29.69 1005 10 16 0.00 0.00
2:53 am 02:53 Clear 56 13.3 48 8.9 75 75 S 13 20 29.70 1006 10 16 0.00 0.00
3:53 am 03:53 Clear 56 13.3 49 9.4 77 77 S 13 20 29.69 1006 10 16 0.00 0.00
4:53 am 04:53 Clear 56 13.3 51 10.6 84 84 S 13 20 29.69 1005 10 16 0.00 0.00
5:53 am 05:53 Clear 54 12.2 51 10.6 90 90 SSE 13 20 29.70 1006 10 16 0.00 0.00
6:53 am 06:53 Clear 53 11.7 51 10.6 93 93 S 12 19 29.71 1006 10 16 0.00 0.00
7:53 am 07:53 Sunny 53 11.7 51 10.6 93 93 SSE 12 19 29.70 1006 8 13 0.00 0.00
8:53 am 08:53 Sunny 56 13.3 52 11.1 87 87 SSE 10 17 29.70 1006 10 16 0.00 0.00
9:53 am 09:53 Sunny 60 15.6 52 11.1 75 75 S 18 30 29.69 1005 10 16 0.00 0.00
10:53 am 10:53 Sunny 64 17.8 52 11.1 65 65 S 21 33 29.67 1005 10 16 0.00 0.00
11:53 am 11:53 Sunny 63 17.2 51 10.6 65 65 S 16 26 29.65 1004 10 16 0.00 0.00
12:53 pm 12:53 Sunny 65 18.3 51 10.6 61 61 S 16 26 29.63 1003 10 16 0.00 0.00
1:53 pm 13:53 Sunny 70 21.1 51 10.6 51 51 S 15 24 29.61 1003 10 16 0.00 0.00
2:53 pm 14:53 Sunny 70 21.1 51 10.6 51 51 S 10 17 29.60 1002 10 16 0.00 0.00
3:53 pm 15:53 Sunny 69 20.6 50 10 51 51 S 12 19 29.59 1002 10 16 0.00 0.00
4:53 pm 16:53 Sunny 66 18.9 51 10.6 59 59 S 16 26 29.59 1002 10 16 0.00 0.00
5:53 pm 17:53 Clear 65 18.3 51 10.6 61 61 S 24 39 29.60 1002 10 16 0.00 0.00
6:53 pm 18:53 Clear 63 17.2 51 10.6 65 65 S 20 31 29.61 1003 10 16 0.00 0.00
7:53 pm 19:53 Clear 63 17.2 51 10.6 65 65 S 18 30 29.61 1003 10 16 0.00 0.00
8:53 pm 20:53 Clear 63 17.2 50 10 63 63 S 23 37 29.60 1002 10 16 0.00 0.00
9:53 pm 21:53 Clear 63 17.2 51 10.6 65 65 S 22 35 29.60 1002 10 16 0.00 0.00
10:53 pm 22:53 Clear 62 16.7 51 10.6 67 67 S 22 35 29.59 1002 10 16 0.00 0.00
11:53 pm 23:53 Clear 61 16.1 52 11.1 72 72 SSE 24 39 29.59 1002 10 16 0.00 0.00

Powered by AerisWeather